WetterOnline ( http://www.wetteronline.de )

Wetter aktuell Freudenstadt (in 700m)

Aktuelles Wetter: Freudenstadt (801m)

6-stündlich | Neueste Meldungen
Ortszeit Temperatur Wetter
Mo, 25.03. 19:00 0.1° C leicht bewölkt
Mo, 25.03. 13:00 5.1° C wolkig
Mo, 25.03. 7:00 1.0° C wolkenlos
Mo, 25.03. 1:00 4.0° C bewölkt
So, 24.03. 19:00 7.8° C wolkenlos
So, 24.03. 13:00 12.5° C wolkenlos
So, 24.03. 7:00 3.6° C leicht bewölkt
So, 24.03. 1:00 5.9° C wolkenlos
Ortszeit Temperatur Wetter
Mo, 25.03. 23:00 0.1° C Regen
Mo, 25.03. 22:50 0.1° C bewölkt
Mo, 25.03. 22:40 -0.1° C Schneegriesel
Mo, 25.03. 22:30 0.1° C leichter Schneefall
Mo, 25.03. 22:20 0.1° C leichter Schneefall
Mo, 25.03. 22:10 0.3° C Sprühregen
Mo, 25.03. 22:00 0.2° C Schneegriesel
Mo, 25.03. 21:30 -0.0° C starker Schneefall
Mo, 25.03. 21:00 0.4° C Schneegriesel
Mo, 25.03. 20:30 -0.1° C leichter Schneefall
Mo, 25.03. 20:00 -0.0° C wolkig
Ortszeit Relative Feuchte Sichtweite
Mo, 25.03. 19:00 85% 70 km
Mo, 25.03. 13:00 58% 30 km
Mo, 25.03. 7:00 86% 11 km
Mo, 25.03. 1:00 92% 2.3 km
So, 24.03. 19:00 73% 6 km
So, 24.03. 13:00 47% 13 km
So, 24.03. 7:00 92% 1.9 km
So, 24.03. 1:00 80% 5.0 km
Ortszeit Relative Feuchte Sichtweite
Mo, 25.03. 23:00 92% 35 km
Mo, 25.03. 22:50 92% -
Mo, 25.03. 22:40 95% -
Mo, 25.03. 22:30 94% 4.1 km
Mo, 25.03. 22:20 94% -
Mo, 25.03. 22:10 93% -
Mo, 25.03. 22:00 94% 9 km
Mo, 25.03. 21:30 96% 0.2 km
Mo, 25.03. 21:00 92% 29 km
Mo, 25.03. 20:30 92% 6 km
Mo, 25.03. 20:00 89% 45 km
Ortszeit Niederschlagsmenge Niederschlagsart
Mo, 25.03. 19:00 2 l/m2 in 12 Std. Schneeschauer
Mo, 25.03. 13:00 0.1 l/m2 in 6 Std. Schnee, Sprühregen
Mo, 25.03. 7:00 0.0 l/m2 in 12 Std. -
Mo, 25.03. 1:00 0.0 l/m2 in 6 Std. -
So, 24.03. 19:00 0.0 l/m2 in 12 Std. -
So, 24.03. 13:00 0.0 l/m2 in 6 Std. -
So, 24.03. 7:00 0.0 l/m2 in 12 Std. -
So, 24.03. 1:00 0.0 l/m2 in 6 Std. -
Ortszeit Niederschlagsmenge Niederschlagsart
Mo, 25.03. 23:00 0.1 l/m2 in 1 Std. Schnee, Regen
Mo, 25.03. 22:50 keine Meldung -
Mo, 25.03. 22:40 keine Meldung -
Mo, 25.03. 22:30 0.1 l/m2 in 1 Std. -
Mo, 25.03. 22:20 keine Meldung -
Mo, 25.03. 22:10 keine Meldung -
Mo, 25.03. 22:00 0.9 l/m2 in 1 Std. Schnee, Sprühregen
Mo, 25.03. 21:30 0.3 l/m2 in 1 Std. -
Mo, 25.03. 21:00 0.1 l/m2 in 1 Std. Schnee, Sprühregen
Mo, 25.03. 20:30 0.1 l/m2 in 1 Std. -
Mo, 25.03. 20:00 0.0 l/m2 in 1 Std. -
Ortszeit Stärke Spitze Richtung
km/h Bft. km/h Grad Sektor
Mo, 25.03. 19:00 15 3 63 300° NW
Mo, 25.03. 13:00 39 6 63 280° W
Mo, 25.03. 7:00 18 3 32 280° W
Mo, 25.03. 1:00 7 2 22 310° NW
So, 24.03. 19:00 14 3 36 300° NW
So, 24.03. 13:00 20 4 33 280° W
So, 24.03. 7:00 0 0 14 - -
So, 24.03. 1:00 9 2 20 20° N
Ortszeit Stärke Spitze Richtung
km/h Bft. km/h Grad Sektor
Mo, 25.03. 23:00 19 3 33 350° N
Mo, 25.03. 22:50 19 3 - 350° N
Mo, 25.03. 22:40 13 3 - 340° N
Mo, 25.03. 22:30 9 2 22 320° NW
Mo, 25.03. 22:20 9 2 - 320° NW
Mo, 25.03. 22:10 11 2 - 320° NW
Mo, 25.03. 22:00 14 3 25 320° NW
Mo, 25.03. 21:30 11 2 18 320° NW
Mo, 25.03. 21:00 0 0 29 - -
Mo, 25.03. 20:30 0 0 29 - -
Mo, 25.03. 20:00 20 4 31 280° W
Ortszeit Untergrenze Bedeckung Gattung
total tief tief mittel hoch
Mo, 25.03. 19:00 1020 m 4/8 3/8 - - -
Mo, 25.03. 13:00 750 m 5/8 5/8 - - -
Mo, 25.03. 7:00 - 0/8 0/8 - - -
Mo, 25.03. 1:00 360 m 7/8 7/8 - - -
So, 24.03. 19:00 660 m 0/8 0/8 - - -
So, 24.03. 13:00 - 0/8 0/8 - - -
So, 24.03. 7:00 9000 m 3/8 0/8 - - -
So, 24.03. 1:00 - 0/8 0/8 - - -
Ortszeit Bedeckungsgrad in Achtel und Wolkenuntergrenze
Mo, 25.03. 23:00 1(60m) 7(300m) 7(480m)
Mo, 25.03. 22:50 1(60m) 7(300m) 7(480m)
Mo, 25.03. 22:40 1(60m) 7(300m) 7(540m)
Mo, 25.03. 22:30 6(300m) 7(480m) 8(690m)
Mo, 25.03. 22:20 6(300m) 7(480m) 8(690m)
Mo, 25.03. 22:10 1(60m) 7(510m) 8(720m)
Mo, 25.03. 22:00 2(30m) 7(510m) 8(840m)
Mo, 25.03. 21:30 3(30m) 7(360m) 7(1800m)
Mo, 25.03. 21:00 2(360m) 7(2400m) 8(3000m)
Mo, 25.03. 20:30 2(270m) 6(2400m) 8(4200m)
Mo, 25.03. 20:00 1(870m) 6(4200m) 7(4800m)
Ortszeit Stationsdruck (hPa) Tendenz (hPa in 3 Std.)
Mo, 25.03. 19:00 929 + 1,4
Mo, 25.03. 13:00 928 - 0,4
Mo, 25.03. 7:00 928 + 0,1
Mo, 25.03. 1:00 928 - 1,1
So, 24.03. 19:00 930 + 0,4
So, 24.03. 13:00 930 - 0,6
So, 24.03. 7:00 931 - 0,5
So, 24.03. 1:00 933 - 1,2
Ortszeit Stationsdruck (hPa) Tendenz (hPa in 3 Std.)
Mo, 25.03. 23:00 930 + 1,1
Mo, 25.03. 22:50 930 keine Meldung
Mo, 25.03. 22:40 930 keine Meldung
Mo, 25.03. 22:30 930 + 0,9
Mo, 25.03. 22:20 930 keine Meldung
Mo, 25.03. 22:10 930 keine Meldung
Mo, 25.03. 22:00 930 + 1,1
Mo, 25.03. 21:30 930 + 1,2
Mo, 25.03. 21:00 930 + 0,9
Mo, 25.03. 20:30 930 + 0,8
Mo, 25.03. 20:00 929 + 1,0
Ortszeit Schneehöhe (cm)
Mo, 25.03. 19:00 0
Mo, 25.03. 13:00 0
Mo, 25.03. 7:00 0
Mo, 25.03. 1:00 0
So, 24.03. 19:00 0
So, 24.03. 13:00 0
So, 24.03. 7:00 0
So, 24.03. 1:00 0
Ortszeit Schneehöhe (cm)
Mo, 25.03. 23:00 -
Mo, 25.03. 22:50 -
Mo, 25.03. 22:40 1
Mo, 25.03. 22:30 -
Mo, 25.03. 22:20 -
Mo, 25.03. 22:10 -
Mo, 25.03. 22:00 -
Mo, 25.03. 21:30 1
Mo, 25.03. 21:00 0
Mo, 25.03. 20:30 0
Mo, 25.03. 20:00 0
Link zu dieser Seite / Seite empfehlen

Das Wetter in ...